Theta_e
303 303 304 304 303 303 303 303 303 302 302 302 302 302 301 301 304 308 307 306 307 306 307 314 313 311 318 323 319 318 325 326 325 324 336 337 336 338 336 336 341 347 347 352 353 353 353
302 303 303 304 304 303 303 303 302 302 302 302 302 302 301 301 306 307 306 306 306 306 310 313 311 311 324 322 317 317 325 330 328 323 333 334 334 335 334 334 337 338 342 351 354 352 352
302 302 302 303 303 303 303 303 302 301 301 301 301 301 301 301 307 306 306 306 306 309 310 313 315 319 323 318 316 317 324 325 323 326 334 333 331 333 331 331 330 334 339 340 353 353 356
302 302 302 302 302 302 302 301 301 301 301 301 301 301 301 301 307 306 307 307 309 308 311 314 316 325 320 315 316 316 320 326 327 330 333 329 329 329 331 329 327 332 336 346 348 351 351
301 301 301 301 301 301 301 301 300 301 301 301 300 301 301 301 308 307 307 308 310 309 311 316 325 327 318 314 316 316 317 326 328 329 328 329 328 328 329 328 329 326 333 337 340 348 350
300 301 301 301 301 301 301 300 300 300 300 300 301 302 302 302 307 307 308 307 314 312 321 321 320 320 315 316 315 317 319 324 327 329 327 329 328 329 329 330 328 326 328 332 337 346 349
301 301 301 301 301 301 300 300 300 300 300 303 305 306 303 304 307 308 311 315 323 322 316 316 317 316 315 315 315 319 324 326 328 329 326 326 328 328 330 330 328 327 327 330 334 340 349
302 301 301 300 301 301 301 301 300 301 305 306 306 307 306 305 308 307 311 316 314 314 316 313 313 314 314 315 316 319 322 326 325 331 328 325 325 326 326 326 326 326 327 331 332 338 349
306 302 302 302 302 301 301 300 301 305 306 306 306 307 308 306 307 310 313 312 312 313 316 314 314 314 314 315 316 315 319 324 326 327 330 329 326 324 325 326 326 326 327 329 335 337 340
308 305 303 303 302 301 300 301 305 306 306 306 307 307 308 307 308 312 314 313 313 313 317 315 313 314 314 315 315 313 315 320 323 326 323 325 325 325 325 324 326 327 326 325 328 337 343
310 306 303 303 301 300 300 304 306 306 306 306 307 307 307 306 313 314 313 313 312 313 315 315 314 312 313 314 315 314 313 317 320 322 327 327 324 324 325 325 324 326 326 325 324 327 333
312 307 304 303 301 300 301 305 306 307 307 307 307 307 303 313 313 313 313 313 312 315 315 314 313 313 314 314 314 314 314 315 318 320 322 325 326 325 325 325 325 325 325 326 325 324 326
313 307 305 302 300 300 303 306 307 307 307 307 307 304 304 312 315 313 313 314 315 313 316 315 314 313 314 315 314 314 316 316 316 315 316 319 322 325 325 326 326 326 327 330 330 327 326
311 307 304 302 300 302 306 307 307 307 307 307 307 308 309 310 311 312 314 316 316 315 315 314 313 313 313 314 315 314 314 316 317 317 318 318 319 319 323 324 327 328 328 330 334 332 328
310 306 303 302 302 306 308 308 307 306 306 307 309 312 313 311 311 312 316 317 316 316 314 313 313 313 314 314 313 314 315 315 317 316 317 316 318 320 322 322 325 328 330 328 329 331 333
309 305 303 305 307 308 307 307 307 306 306 307 312 313 311 311 311 312 316 316 315 314 313 313 314 316 316 316 314 315 316 316 316 314 314 317 320 319 318 320 321 325 328 330 329 332 335
308 305 304 307 308 307 307 307 307 306 306 310 313 316 312 313 312 316 318 319 317 315 313 315 316 316 316 316 315 316 316 315 314 314 313 314 316 316 315 317 317 318 322 327 329 329 331
305 304 307 308 307 307 307 307 307 306 306 313 316 317 313 314 319 318 321 317 310 315 314 314 314 315 315 316 316 315 315 316 314 314 314 313 314 316 315 315 315 315 318 320 327 333 332
304 306 308 307 307 307 307 307 307 306 306 310 318 317 314 315 320 319 317 316 314 315 315 315 315 315 314 314 315 315 315 314 312 312 313 314 315 315 316 316 315 313 315 321 324 325 332
305 306 307 307 307 307 307 307 307 306 306 309 317 320 318 315 314 316 316 315 315 313 314 314 314 314 314 315 314 315 313 312 311 312 312 311 314 316 317 317 314 316 313 315 320 325 327
304 307 307 307 307 307 307 307 307 306 307 310 316 316 314 317 315 315 314 314 314 314 313 313 313 313 314 316 315 315 314 313 312 312 312 312 313 314 314 313 313 313 314 315 317 319 322
304 307 307 307 307 307 307 307 307 307 310 313 316 315 313 314 313 314 313 313 312 312 312 313 313 313 313 314 314 316 315 317 315 312 312 312 315 314 317 314 312 312 312 313 312 313 319
305 307 307 307 307 307 307 307 307 307 311 312 310 310 314 309 313 313 312 312 312 312 312 312 311 312 313 313 312 313 313 313 315 316 316 315 315 316 317 315 313 313 313 312 312 312 312
306 307 307 307 307 307 307 307 307 307 311 311 310 311 315 315 314 313 312 312 312 312 312 311 311 311 312 310 311 312 312 312 313 313 313 316 318 320 319 314 316 313 312 311 311 312 313
307 307 307 307 307 307 307 308 308 307 309 311 311 312 313 315 312 312 312 312 312 312 312 312 310 310 310 312 314 315 314 313 314 313 313 313 318 320 320 317 313 311 311 310 317 316 317
308 308 307 307 307 307 307 308 308 308 308 312 312 310 311 316 315 313 313 313 313 314 314 312 312 311 312 313 314 316 317 318 315 315 313 313 315 318 317 316 316 313 312 315 314 319 315
308 308 307 307 307 308 308 308 308 308 309 312 311 312 312 316 314 313 314 313 311 313 312 314 313 313 311 313 315 319 317 316 317 316 316 316 319 319 320 317 315 312 312 312 315 316 319
308 308 307 307 308 308 308 308 308 308 308 312 313 312 313 317 315 313 312 313 313 313 315 314 315 314 312 315 316 317 317 317 314 314 317 316 317 318 316 317 318 314 313 314 315 313 310
308 309 307 307 308 308 308 308 308 308 308 310 313 311 311 311 316 314 313 312 312 312 314 313 315 313 311 312 312 311 314 314 314 317 312 317 316 317 317 316 315 313 311 311 308 311 312
Wind_Speed
16 16 16 17 18 20 21 23 25 27 28 28 29 30 32 33 31 26 23 17 17 18 11 7 10 4 3 9 1 4 9 6 18 25 25 21 20 18 18 17 16 18 16 2 4 2 5
16 17 17 17 19 20 22 24 25 27 29 29 30 31 32 34 31 26 19 19 19 13 7 9 7 5 7 10 3 5 3 7 22 29 26 23 15 18 13 15 15 10 16 5 9 10 10
17 17 18 18 19 20 22 23 25 26 28 29 30 31 32 34 29 22 20 20 12 7 7 5 5 6 10 7 3 2 2 9 20 25 19 21 19 16 8 14 13 17 12 16 13 15 9
18 18 19 20 20 21 23 24 25 27 28 29 30 31 31 33 28 18 20 14 7 9 2 1 4 9 2 1 2 1 3 11 16 17 17 18 14 13 19 11 7 17 18 15 20 17 17
18 19 19 20 21 23 24 25 26 27 27 29 30 30 30 31 23 16 20 9 5 7 4 3 6 10 8 3 2 2 5 13 15 15 12 14 10 15 18 13 13 15 15 21 19 22 21
18 19 20 21 22 23 25 26 27 28 28 29 30 29 29 29 18 15 17 7 8 6 5 8 12 9 4 1 4 1 5 9 16 13 13 12 10 16 17 16 15 17 18 17 19 16 21
19 19 19 21 23 24 26 26 26 27 28 29 30 30 28 27 14 11 17 7 6 7 19 9 6 3 4 5 3 3 7 14 14 15 17 20 16 19 22 20 21 17 16 20 19 15 16
19 19 19 20 20 22 24 24 26 27 27 28 29 29 28 25 11 8 13 5 6 6 8 6 3 4 1 1 5 4 8 12 14 18 20 14 21 20 18 17 19 18 14 15 16 14 10
19 19 20 20 21 22 23 25 26 27 27 28 29 28 27 21 7 7 4 5 6 6 7 11 5 3 1 9 1 3 7 11 11 19 22 22 13 21 21 19 17 18 18 17 13 11 16
19 19 20 20 21 22 24 25 26 27 28 28 28 27 26 17 6 4 3 6 7 4 6 13 10 4 6 4 8 1 1 9 9 16 20 21 21 11 22 21 17 19 18 18 15 13 13
18 18 19 20 21 22 23 26 27 28 29 29 30 29 21 10 12 8 7 9 4 7 6 7 8 4 2 9 4 8 2 8 14 14 12 17 18 21 18 22 17 18 16 17 17 17 16
17 17 17 19 21 22 25 26 28 31 32 32 31 25 12 5 9 4 8 7 6 7 4 7 4 4 9 4 4 1 3 5 8 8 10 19 9 13 19 16 17 18 17 15 14 15 17
16 16 16 19 21 22 25 27 29 32 33 32 31 12 3 5 6 7 9 8 7 9 3 8 5 6 4 3 7 4 4 11 11 11 15 17 20 13 15 17 22 16 15 13 14 15 18
15 14 16 19 20 23 25 28 30 33 35 34 18 1 1 4 8 8 10 9 10 4 3 5 2 5 9 3 8 4 8 10 10 13 15 13 16 21 17 21 18 26 22 13 21 15 21
14 13 17 19 21 24 25 27 31 34 34 29 8 3 3 6 6 6 7 9 5 7 6 2 7 11 12 7 6 4 10 12 5 4 14 10 18 7 3 8 18 17 24 27 25 22 19
13 14 17 19 21 23 25 27 30 33 34 19 11 6 8 8 3 9 8 12 4 7 7 6 11 6 10 8 6 8 7 4 3 6 8 6 10 10 9 6 15 16 17 18 18 25 26
12 14 17 20 22 23 25 26 29 31 33 10 8 5 9 10 6 7 8 6 4 6 7 7 10 12 9 11 5 13 6 8 4 5 8 12 8 15 9 12 19 16 19 20 19 18 21
13 16 18 21 22 23 24 24 25 27 32 12 6 5 11 8 8 2 7 5 1 6 2 4 6 8 13 15 13 11 14 9 7 4 10 5 8 15 18 13 14 23 13 22 16 22 17
16 17 19 20 21 22 22 23 23 23 23 14 6 3 14 13 3 1 4 2 2 6 5 6 8 9 10 8 8 11 15 5 6 7 4 4 10 12 17 15 16 16 17 17 17 21 25
18 18 20 21 21 19 19 21 21 19 19 10 5 2 4 7 6 5 2 5 4 6 6 6 9 12 12 15 13 7 12 5 4 9 8 2 13 14 15 5 12 9 21 21 18 16 20
19 19 20 20 18 17 17 19 18 17 13 10 4 5 5 3 6 5 3 3 4 8 10 9 2 6 9 7 10 14 14 10 9 10 8 10 16 16 19 18 13 15 13 12 17 18 22
21 20 20 19 17 16 15 15 15 15 13 3 4 2 3 6 2 2 7 8 8 9 4 5 6 9 8 9 12 17 6 11 16 10 15 14 16 16 22 15 17 19 18 19 19 20 22
21 19 19 17 15 14 13 12 12 13 13 7 6 4 5 3 5 5 6 6 7 6 2 6 6 7 9 10 10 15 14 13 12 14 15 16 14 14 20 19 19 21 21 21 22 23 21
21 18 17 14 13 12 10 9 9 9 12 7 7 3 2 6 5 6 5 5 7 7 8 9 5 7 4 11 14 16 19 17 18 19 18 17 15 13 15 19 22 16 18 20 23 23 22
19 17 15 13 12 10 7 7 7 6 8 7 5 3 3 4 2 2 8 7 6 4 6 8 5 6 10 12 7 8 12 15 21 23 21 22 17 8 12 15 19 22 16 20 8 16 17
18 16 13 11 9 7 6 5 4 5 5 4 5 5 0 2 7 4 4 6 5 7 7 3 10 9 8 3 3 4 3 4 4 4 15 23 17 10 12 17 22 22 10 11 8 20 20
16 14 11 9 6 6 4 3 3 4 5 2 2 2 1 2 7 4 4 3 2 5 3 7 8 2 6 1 3 2 3 3 4 5 7 7 14 15 17 18 16 19 9 7 9 15 23
14 12 10 7 4 3 2 1 2 2 4 1 3 1 3 4 5 1 3 2 3 1 3 8 3 3 2 2 2 3 3 2 3 3 7 4 6 9 12 12 19 10 4 5 12 18 21
13 12 8 5 1 1 1 1 3 2 4 1 2 1 3 2 5 4 2 2 2 3 4 4 5 3 1 1 1 2 2 3 5 4 2 3 4 4 4 2 7 2 9 14 14 17 26
Wind_Direction
22 19 17 14 12 10 8 7 4 2 0 358 355 352 351 349 346 339 332 329 319 321 311 293 292 284 190 210 83 346 350 242 185 192 210 199 208 207 224 230 227 227 259 127 252 261 144
14 13 11 9 6 3 2 2 1 358 356 355 353 351 349 348 345 338 336 328 320 318 303 289 273 190 242 241 23 327 348 159 183 189 210 205 213 213 242 248 241 229 238 227 203 203 207
7 6 5 4 1 358 358 358 356 355 352 352 352 349 347 345 344 338 336 329 334 324 306 288 211 215 258 41 336 311 190 171 174 193 204 205 219 221 229 259 235 259 263 227 234 198 201
0 359 358 357 356 353 353 352 352 352 349 349 350 347 345 344 342 337 337 331 346 331 293 285 218 258 35 50 309 186 191 184 187 207 218 208 220 263 240 262 259 235 240 241 208 204 236
355 353 352 351 350 349 349 349 350 349 349 347 349 345 343 342 341 335 341 325 316 351 302 196 273 223 131 201 245 306 217 176 185 196 220 220 238 235 234 238 237 211 228 221 238 180 224
353 351 349 348 347 348 348 348 350 348 348 346 347 344 340 341 338 331 338 313 282 290 272 247 265 258 161 141 3 180 187 196 185 176 193 207 216 229 223 216 231 216 213 226 229 177 213
349 348 347 347 347 348 347 347 349 347 347 345 347 345 339 338 332 339 330 268 217 203 227 322 42 341 110 135 253 121 159 165 177 196 200 196 212 213 215 229 242 283 235 229 204 215 203
344 344 344 345 347 348 346 348 347 346 346 343 345 344 338 336 314 309 301 355 32 333 288 201 262 228 206 234 172 112 189 209 202 209 211 190 220 222 227 233 234 254 257 256 233 197 202
338 341 342 345 347 349 347 347 346 344 344 342 342 342 336 332 280 267 349 26 320 306 254 160 213 233 266 250 233 83 270 219 215 213 211 226 215 221 230 230 232 235 241 246 235 175 230
339 339 342 345 346 348 345 344 343 344 342 341 340 339 332 325 269 337 203 344 311 239 262 142 198 145 221 281 201 303 321 277 225 238 232 227 242 215 219 229 225 234 223 256 247 245 225
336 335 340 343 344 346 344 343 342 342 341 339 339 336 326 298 309 278 341 320 307 219 269 134 120 56 224 226 51 150 279 238 255 216 252 224 230 233 236 227 222 242 247 222 239 249 255
334 333 339 342 343 346 343 343 342 341 338 337 338 331 321 226 234 309 310 307 237 231 230 128 131 156 206 193 157 354 236 231 332 278 253 262 287 240 242 224 220 236 244 247 249 239 234
332 337 340 342 343 344 343 343 341 338 338 337 337 333 244 287 332 318 305 258 237 246 129 131 171 197 244 149 183 259 233 205 228 217 228 224 242 207 248 250 216 214 213 222 225 223 236
337 341 342 342 343 343 343 341 338 337 339 340 343 329 232 279 299 290 272 247 254 348 39 63 194 192 258 124 201 214 240 242 218 274 284 243 212 216 208 235 228 212 227 222 218 220 231
346 346 342 343 344 343 341 339 337 337 340 343 346 244 250 343 306 267 256 241 262 28 21 298 201 251 247 176 269 211 234 276 46 281 280 261 246 87 6 226 252 243 218 239 260 257 245
353 347 343 342 343 344 343 339 336 338 342 348 324 258 51 337 309 244 248 267 23 3 336 281 275 302 285 191 209 196 239 107 225 276 306 315 271 183 187 229 257 265 272 224 239 249 255
352 344 343 343 345 345 342 340 339 342 344 349 272 239 35 331 259 235 254 48 7 34 348 299 295 291 266 280 257 269 266 111 224 178 280 294 249 252 199 213 239 205 241 254 276 236 243
354 347 347 342 345 343 342 339 341 347 350 348 273 263 10 316 244 306 25 25 47 309 295 285 295 287 294 302 293 257 256 270 130 256 244 220 279 239 228 232 241 258 271 226 236 235 245
352 349 344 342 346 346 344 341 344 350 358 327 321 17 32 314 272 152 68 39 345 318 12 342 305 314 314 295 283 274 266 281 126 236 263 245 235 245 247 253 257 255 241 246 265 252 247
347 346 341 340 346 348 345 341 346 350 355 335 291 211 104 56 31 13 302 36 17 76 333 341 315 329 325 312 290 263 263 195 239 240 39 306 273 260 257 75 339 274 223 244 251 248 252
345 343 339 341 348 347 345 341 349 350 353 328 356 56 344 1 54 56 355 4 5 13 4 325 327 13 326 295 284 276 287 231 226 236 224 237 251 257 269 286 280 274 273 253 253 259 260
346 343 339 343 349 350 348 348 356 359 345 336 348 37 101 73 14 318 46 46 16 2 332 337 343 330 311 280 290 294 272 302 261 233 226 234 254 279 284 264 264 257 247 248 255 257 260
345 344 341 345 353 352 352 355 2 15 15 44 45 62 308 76 34 57 51 2 335 318 259 301 295 295 295 282 298 291 278 249 242 272 265 255 253 253 257 256 248 247 250 249 252 249 249
346 346 344 349 357 357 358 356 14 36 51 61 58 22 336 101 77 51 360 337 357 341 301 302 296 284 311 320 300 273 263 253 244 237 245 243 245 245 259 266 257 251 259 260 259 256 253
346 348 347 355 2 356 9 6 17 46 81 63 81 13 345 59 81 96 11 338 342 346 316 301 352 304 307 297 302 290 251 240 240 238 226 232 228 243 239 250 258 261 261 267 325 278 296
345 350 352 360 4 7 15 21 44 63 93 64 67 62 332 308 50 25 358 345 344 342 355 72 8 346 352 313 283 265 302 318 296 270 240 238 228 210 236 235 250 257 263 33 330 268 256
342 348 352 2 15 31 16 44 63 79 117 46 70 37 316 319 56 39 8 3 1 333 296 307 333 359 32 351 271 293 317 10 285 301 296 250 209 225 230 240 256 259 339 341 261 275 314
340 347 346 357 25 54 9 42 111 101 144 63 67 101 322 336 55 15 83 332 300 203 306 326 298 68 6 297 322 354 306 321 279 277 314 280 209 216 238 245 249 23 307 247 318 315 313
338 347 344 348 32 85 287 231 153 146 159 195 283 287 279 276 344 338 336 345 205 284 308 317 333 91 63 289 10 299 308 307 297 357 303 281 321 310 275 274 359 354 302 275 286 281 283